This is the latest recevied weather packets stored in our database for station/object KJ4RDP-13. If no packets are shown the sender has not sent any weather packets the latest 10 day(s).
| Time | Temp. | Humidity | Pressure | Rain* | Wind** | Luminosity | Snow |
|---|---|---|---|---|---|---|---|
| 1778013739 | 21.11° C | 46% | 1014.2 hPa | 0 mm | - | 580 W/m² | - |
| 1778013436 | 21.11° C | 49% | 1014.2 hPa | 0 mm | - | 290 W/m² | - |
| 1778013132 | 21.11° C | 47% | 1014.2 hPa | 0 mm | - | 500 W/m² | - |
| 1778012828 | 21.11° C | 47% | 1014.2 hPa | 0 mm | - | 435 W/m² | - |
| 1778012524 | 21.11° C | 46% | 1014.2 hPa | 0 mm | - | 348 W/m² | - |
| 1778012221 | 21.67° C | 45% | 1014.2 hPa | 0 mm | - | 511 W/m² | - |
| 1778011919 | 21.67° C | 44% | 1014.6 hPa | 0 mm | - | 315 W/m² | - |
| 1778011617 | 21.67° C | 46% | 1014.6 hPa | 0 mm | - | 467 W/m² | - |
| 1778011313 | 21.67° C | 46% | 1014.6 hPa | 0 mm | - | 430 W/m² | - |
| 1778011009 | 21.11° C | 45% | 1014.6 hPa | 0 mm | - | 470 W/m² | - |
| 1778010707 | 21.67° C | 45% | 1014.6 hPa | 0 mm | - | 426 W/m² | - |
| 1778010404 | 21.11° C | 46% | 1014.2 hPa | 0 mm | - | 492 W/m² | - |
| 1778010100 | 21.67° C | 46% | 1014.6 hPa | 0 mm | - | 449 W/m² | - |
| 1778009797 | 21.67° C | 45% | 1014.6 hPa | 0 mm | - | 443 W/m² | - |
| 1778009493 | 21.67° C | 47% | 1014.6 hPa | 0 mm | - | 407 W/m² | - |
| 1778009192 | 21.11° C | 44% | 1014.6 hPa | 0 mm | - | 466 W/m² | - |
| 1778008889 | 21.67° C | 44% | 1014.9 hPa | 0 mm | - | 422 W/m² | - |
| 1778008588 | 21.67° C | 45% | 1014.9 hPa | 0 mm | - | 392 W/m² | - |
| 1778008285 | 21.67° C | 44% | 1014.9 hPa | 0 mm | - | 517 W/m² | - |
| 1778007981 | 21.67° C | 44% | 1015.2 hPa | 0 mm | - | 491 W/m² | - |
| 1778007676 | 21.67° C | 44% | 1014.9 hPa | 0 mm | - | 466 W/m² | - |
| 1778007373 | 21.67° C | 46% | 1014.9 hPa | 0 mm | - | 486 W/m² | - |
| 1778007069 | 21.67° C | 47% | 1014.9 hPa | 0 mm | - | 471 W/m² | - |
| 1778006766 | 22.22° C | 47% | 1014.6 hPa | 0 mm | - | 426 W/m² | - |
| 1778006463 | 21.67° C | 48% | 1014.9 hPa | 0 mm | - | 447 W/m² | - |
* Rain latest hour (hover to see other rain measurements)
** Current wind speed in m/s (hover to see current wind gust speed)